Weather History for Fort Campbell, KY

Change the Weather History Date:

Saturday, December 29, 2012

  Actual Average Record
Temperature  
Mean Temperature 32 °F -  
Max Temperature 37 °F 43 °F 64 °F (1996)
Min Temperature 24 °F 27 °F 17 °F (2000)
Degree Days  
Heating Degree Days 34    
Moisture  
Dew Point 31 °F    
Average Humidity 91    
Maximum Humidity 100    
Minimum Humidity 69    
Precipitation  
Precipitation 0.00 in - - ()
Sea Level Pressure  
Sea Level Pressure 30.04 in    
Wind  
Wind Speed 12 mph (WNW)    
Max Wind Speed 17 mph    
Max Gust Speed 28 mph    
Visibility 10 miles    
Events Rain , Snow    
Averages and records for this station are not official NWS values.
T = Trace of Precipitation, MM = Missing Value Source: NWS Daily Summary

Daily Weather History Graph

Daily Weather History Graph

Search for Another Location

Airport:

Trip Planner

Search our weather history database for the weather conditions in past years. The results will help you decide how hot, cold, wet, or windy it might be!

Date:

Astronomy

Dec. 29, 2012 Rise Set
Actual Time 7:01 AM CST 4:42 PM CST
Civil Twilight 6:33 AM CST 5:11 PM CST
Nautical Twilight 6:00 AM CST 5:44 PM CST
Astronomical Twilight 5:29 AM CST 6:15 PM CST
Moon 6:12 PM CST (12/29) 7:37 AM CST (12/29)
Length of Visible Light 10h 38m
Length of Day
9h 41m
Full, 98% of the Moon is Illuminated
Dec 29
Full
Jan 4
Last Quarter
Jan 11
New
Jan 18
First Quarter
Jan 26
Full

Hourly Weather History & Observations

Time (CST) Temp. Windchill Dew Point Humidity Pressure Visibility Wind Dir Wind Speed Gust Speed Precip Events Conditions
12:25 AM 37.4 °F 32.1 °F 37.4 °F 100% 29.79 in 6.0 mi SW 6.9 mph - N/A   Overcast
12:52 AM 37.4 °F 30.3 °F 37.4 °F 100% 29.80 in 6.0 mi West 10.4 mph - N/A   Overcast
12:55 AM 36.9 °F 29.6 °F 36.9 °F 100% 29.80 in 8.0 mi West 10.4 mph - 0.00 in   Overcast
1:04 AM 37.4 °F 29.8 °F 37.4 °F 100% 29.81 in 10.0 mi West 11.5 mph - N/A   Light Drizzle
1:12 AM 37.4 °F 28.5 °F 37.4 °F 100% 29.81 in 10.0 mi WNW 15.0 mph - N/A   Light Drizzle
1:23 AM 35.6 °F 27.1 °F 35.6 °F 100% 29.82 in 10.0 mi WNW 12.7 mph - N/A   Light Drizzle
1:37 AM 35.6 °F 27.1 °F 35.6 °F 100% 29.83 in 10.0 mi WNW 12.7 mph 19.6 mph N/A   Overcast
1:39 AM 35.6 °F 28.0 °F 35.6 °F 100% 29.83 in 10.0 mi WNW 10.4 mph - N/A   Overcast
1:49 AM 33.8 °F 24.3 °F 33.8 °F 100% 29.83 in 10.0 mi WNW 13.8 mph 19.6 mph N/A   Overcast
1:55 AM 34.3 °F 25.5 °F 34.3 °F 100% 29.84 in 10.0 mi WNW 12.7 mph - 0.00 in   Overcast
2:00 AM 33.8 °F 25.3 °F 33.8 °F 100% 29.84 in 10.0 mi WNW 11.5 mph - N/A   Overcast
2:08 AM 33.8 °F 25.8 °F 33.8 °F 100% 29.85 in 10.0 mi WNW 10.4 mph - N/A   Overcast
2:14 AM 33.8 °F 24.8 °F 33.8 °F 100% 29.85 in 10.0 mi WNW 12.7 mph - N/A   Overcast
2:20 AM 33.8 °F 24.3 °F 33.8 °F 100% 29.85 in 10.0 mi WNW 13.8 mph - N/A   Overcast
2:26 AM 33.8 °F 24.3 °F 33.8 °F 100% 29.86 in 10.0 mi WNW 13.8 mph - N/A   Overcast
2:43 AM 33.8 °F 25.3 °F 33.8 °F 100% 29.87 in 10.0 mi WNW 11.5 mph - N/A   Overcast
2:50 AM 33.8 °F 24.8 °F 33.8 °F 100% 29.87 in 10.0 mi West 12.7 mph - N/A   Light Drizzle
2:53 AM 33.8 °F 24.8 °F 33.8 °F 100% 29.88 in 10.0 mi West 12.7 mph - N/A   Overcast
2:55 AM 34.3 °F 25.5 °F 34.3 °F 100% 29.88 in 10.0 mi West 12.7 mph - 0.00 in   Overcast
3:07 AM 33.8 °F 24.3 °F 33.8 °F 100% 29.88 in 10.0 mi WNW 13.8 mph - N/A   Light Drizzle
3:27 AM 33.8 °F 23.9 °F 33.8 °F 100% 29.88 in 10.0 mi WNW 15.0 mph - N/A   Light Drizzle
3:37 AM 33.8 °F 23.2 °F 33.8 °F 100% 29.89 in 10.0 mi WNW 17.3 mph - N/A   Light Drizzle
3:38 AM 33.8 °F 23.5 °F 33.8 °F 100% 29.89 in 10.0 mi WNW 16.1 mph - N/A   Overcast
3:46 AM 33.8 °F 23.2 °F 33.8 °F 100% 29.89 in 10.0 mi WNW 17.3 mph 21.9 mph N/A   Overcast
3:55 AM 34.0 °F 25.0 °F 33.8 °F 99% 29.89 in 10.0 mi WNW 12.7 mph 21.9 mph 0.00 in   Overcast
4:18 AM 33.8 °F 23.5 °F 33.8 °F 100% 29.91 in 10.0 mi WNW 16.1 mph - N/A   Overcast
4:28 AM 33.8 °F 25.3 °F 33.8 °F 100% 29.91 in 10.0 mi WNW 11.5 mph 20.7 mph N/A   Overcast
4:55 AM 33.6 °F 24.6 °F 32.9 °F 97% 29.92 in 10.0 mi WNW 12.7 mph 23.0 mph 0.00 in   Overcast
5:02 AM 33.8 °F 23.2 °F 32.0 °F 93% 29.92 in 10.0 mi WNW 17.3 mph 21.9 mph N/A   Overcast
5:17 AM 33.8 °F 24.8 °F 33.8 °F 100% 29.94 in 10.0 mi WNW 12.7 mph - N/A   Overcast
5:55 AM 33.6 °F 25.0 °F 33.1 °F 98% 29.96 in 10.0 mi WNW 11.5 mph - 0.00 in   Overcast
6:55 AM 33.6 °F 25.6 °F 32.4 °F 95% 29.99 in 10.0 mi WNW 10.4 mph - N/A   Overcast
7:13 AM 33.8 °F 24.8 °F 32.0 °F 93% 30.00 in 10.0 mi WNW 12.7 mph - N/A   Overcast
7:32 AM 33.8 °F 26.4 °F 32.0 °F 93% 30.00 in 10.0 mi NW 9.2 mph - N/A   Overcast
7:39 AM 33.8 °F 26.4 °F 32.0 °F 93% 30.00 in 10.0 mi WNW 9.2 mph - N/A   Light Drizzle
7:55 AM 33.3 °F 25.1 °F 32.2 °F 96% 30.01 in 10.0 mi WNW 10.4 mph - 0.00 in   Light Drizzle
8:04 AM 33.8 °F 25.8 °F 32.0 °F 93% 30.02 in 10.0 mi WNW 10.4 mph - N/A   Overcast
8:13 AM 33.8 °F 25.8 °F 32.0 °F 93% 30.02 in 10.0 mi WNW 10.4 mph - N/A   Light Drizzle
8:55 AM 33.3 °F 25.1 °F 31.6 °F 94% 30.04 in 10.0 mi NW 10.4 mph - 0.00 in   Light Drizzle
9:35 AM 33.8 °F 25.8 °F 32.0 °F 93% 30.07 in 10.0 mi WNW 10.4 mph - N/A   Overcast
9:36 AM 33.8 °F 25.3 °F 32.0 °F 93% 30.07 in 10.0 mi WNW 11.5 mph - N/A   Light Drizzle
9:47 AM 33.8 °F 24.8 °F 32.0 °F 93% 30.07 in 10.0 mi WNW 12.7 mph - N/A   Overcast
9:55 AM 33.8 °F 25.3 °F 31.3 °F 90% 30.08 in 10.0 mi WNW 11.5 mph - 0.00 in   Overcast
10:01 AM 33.8 °F 24.8 °F 32.0 °F 93% 30.08 in 10.0 mi WNW 12.7 mph - N/A   Light Drizzle
10:04 AM 33.8 °F 24.3 °F 32.0 °F 93% 30.08 in 10.0 mi WNW 13.8 mph - N/A   Light Drizzle
10:41 AM 33.8 °F 24.3 °F 30.2 °F 87% 30.09 in 10.0 mi NW 13.8 mph - N/A Rain Light Rain
10:52 AM 33.8 °F 26.4 °F 30.2 °F 87% 30.09 in 10.0 mi NW 9.2 mph - N/A Rain Light Rain
10:55 AM 33.6 °F 26.2 °F 31.1 °F 90% 30.09 in 10.0 mi NW 9.2 mph - 0.00 in Rain Light Rain
11:55 AM 33.3 °F 25.1 °F 30.9 °F 91% 30.09 in 5.0 mi NW 10.4 mph - 0.00 in Snow Light Snow
12:07 PM 33.8 °F 23.2 °F 30.2 °F 87% 30.09 in 5.0 mi NW 17.3 mph 24.2 mph N/A Snow Light Snow
12:55 PM 33.6 °F 25.0 °F 30.6 °F 89% 30.09 in 9.0 mi NW 11.5 mph 19.6 mph 0.00 in Snow Light Snow
1:55 PM 33.8 °F 26.4 °F 29.1 °F 83% 30.12 in 5.0 mi WNW 9.2 mph 19.6 mph 0.00 in Snow Light Snow
2:55 PM 33.3 °F 23.7 °F 29.8 °F 87% 30.15 in 7.0 mi NW 13.8 mph - 0.00 in Snow Light Snow
3:10 PM 33.8 °F 23.9 °F 30.2 °F 87% 30.17 in 10.0 mi WNW 15.0 mph - N/A   Overcast
3:11 PM 33.8 °F 23.5 °F 30.2 °F 87% 30.17 in 10.0 mi NW 16.1 mph - N/A   Overcast
3:20 PM 33.8 °F 24.8 °F 28.4 °F 81% 30.17 in 10.0 mi NW 12.7 mph - N/A   Overcast
3:50 PM 33.8 °F 24.8 °F 28.4 °F 81% 30.19 in 10.0 mi NW 12.7 mph - N/A Rain Light Rain
3:55 PM 32.9 °F 23.2 °F 28.2 °F 83% 30.19 in 9.0 mi NW 13.8 mph - 0.00 in Rain Light Rain
4:16 PM 32.0 °F 22.5 °F 26.6 °F 80% 30.20 in 10.0 mi WNW 12.7 mph 19.6 mph N/A   Overcast
4:21 PM 32.0 °F 23.0 °F 26.6 °F 80% 30.21 in 10.0 mi WNW 11.5 mph - N/A   Light Drizzle
4:23 PM 32.0 °F 23.0 °F 28.4 °F 87% 30.21 in 10.0 mi WNW 11.5 mph - N/A   Overcast
4:55 PM 31.5 °F 21.8 °F 28.8 °F 90% 30.22 in 10.0 mi West 12.7 mph - 0.00 in   Overcast
5:55 PM 31.3 °F 21.1 °F 25.0 °F 77% 30.27 in 10.0 mi WNW 13.8 mph - N/A   Overcast
6:14 PM 30.2 °F 19.3 °F 24.8 °F 80% 30.28 in 10.0 mi WNW 15.0 mph 23.0 mph N/A Snow Light Snow
6:21 PM 30.2 °F 18.9 °F 24.8 °F 80% 30.28 in 10.0 mi NW 16.1 mph 27.6 mph N/A   Overcast
6:48 PM 30.2 °F 19.3 °F 23.0 °F 75% 30.30 in 10.0 mi WNW 15.0 mph - N/A Snow Light Snow
6:55 PM 30.0 °F 21.1 °F 23.2 °F 76% 30.30 in 10.0 mi NW 10.4 mph - 0.00 in Snow Light Snow
7:55 PM 28.9 °F 18.6 °F 21.0 °F 72% 30.34 in 10.0 mi NW 12.7 mph - 0.00 in   Overcast
8:55 PM 28.6 °F 18.2 °F 20.1 °F 71% 30.35 in 10.0 mi WNW 12.7 mph - N/A   Overcast
9:03 PM 28.4 °F 20.4 °F 19.4 °F 69% 30.35 in 10.0 mi NW 8.1 mph 17.3 mph N/A   Overcast
9:07 PM 28.4 °F 21.2 °F 19.4 °F 69% 30.36 in 10.0 mi NW 6.9 mph - N/A   Overcast
9:55 PM 28.6 °F 19.9 °F 20.1 °F 71% 30.38 in 10.0 mi WNW 9.2 mph - N/A   Overcast
10:15 PM 28.4 °F 20.4 °F 19.4 °F 69% 30.39 in 10.0 mi WNW 8.1 mph - N/A   Overcast
10:55 PM 26.4 °F 20.9 °F 20.1 °F 77% 30.40 in 10.0 mi WNW 4.6 mph - N/A   Clear
11:55 PM 24.3 °F 16.3 °F 19.8 °F 83% 30.40 in 10.0 mi WSW 6.9 mph - N/A   Clear